226  
ASUS42 KTBW 081011  
RWRFL  
FLORIDA REGIONAL WEATHER ROUNDUP  
NATIONAL WEATHER SERVICE TAMPA BAY RUSKIN FL  
500 AM EST THU DEC 08 2022  
 
NOTE: "FAIR" INDICATES FEW OR NO CLOUDS BELOW 12,000 FEET WITH NO  
SIGNIFICANT WEATHER AND/OR S TO VISIBILITY
.  
 
FLZ001>010-012>015-112-114-115-081100-  
PANHANDLE FLORIDA  
 
CITY SKY/WX TMP DP RH WIND PRES REMARKS
 
PENSACOLA FOG 65 64 97 N3 30.22F VSB 1/4  
CRESTVIEW FOG 66 66 100 CALM 30.25S VSB 1/4  
DUKE FIELD FOG 65 64 97 CALM 30.23F VSB 1/4  
VALPARAISO FOG 67 56 67 CALM 30.21F VSB 1/8  
PANAMA CITY FOG 63 61 93 CALM 30.23F VSB 1/4  
TYNDALL AFB FOG 63 61 95 CALM 30.23S VSB 1/4  
APALACHICOLA FOG 57 57 100 CALM 30.23F VSB 1/2  
 
STATION/POSITION SKY/WX TEMP WIND PRES WAVE SWELL
 
AIR SEA DIR/SP/G HT/PER HT/PER  
(F) (DEG/KT/KT) (MB) (FT/S) (FT/S)  
30.1N 87.6W 69 71 300/ 2/ 2 1023.6F 1/ 6  
29.2N 88.2W 74 74 CALM / 2 1024.3F 1/ 5 2/ 5  
28.8N 86.0W 75 70/ 6/ 8 1024.1F 1/ 5 2/ 5  
PANAMA CITY BEAC 65 68 30/ 2/ 3 1024.4F  
TOWER C 70 1023.9F  
28.5N 84.5W 74 76 30/ 8/ 8 1022.1F 1  
 

 
FLZ011-016>038-118-127-128-134-139-239-081100-  
NORTH FLORIDA  
 
CITY SKY/WX TMP DP RH WIND PRES REMARKS
 
MARIANNA FOG 62 62 100 CALM 30.23F VSB 1/4  
TALLAHASSEE FOG 59 59 100 CALM 30.23F VSB 1/4  
LIVE OAK N/A N/A N/A N/A MISG N/A  
CROSS CITY PTCLDY 55 54 98 CALM 30.23F  
LAKE CITY FOG 59 59 100 CALM 30.23S VSB 1  
GAINESVILLE CLEAR 56 55 97 CALM 30.25F  
WILLISTON FAIR 55 54 99 CALM 30.24F FOG  
PALATKA MOCLDY 52 50 93 CALM 30.23F FOG  
MAYPORT NAS CLEAR 65 62 90 W6 30.22F  
JACKSONVILLE CLEAR 56 55 97 CALM 30.21F  
JAX NAS PTCLDY 63 61 93 CALM 30.23F  
JAX CECIL FOG 54 54 100 CALM 30.23S VSB<1/4  
FERNANDINA BEA FAIR 59 57 94 SW3 30.22F  
ST AUGUSTINE CLEAR 61 32 33 W6 30.23F  
PALM COAST N/A 56 55 97 CALM 30.22F  
 
STATION/POSITION SKY/WX TEMP WIND PRES WAVE SWELL
 
AIR SEA DIR/SP/G HT/PER HT/PER  
(F) (DEG/KT/KT) (MB) (FT/S) (FT/S)  
SHELL POINT NOT AVBL  
KEATON BEACH 63 350/ 2/ 2 1023.7F  
CEDAR KEY 65 40/ 4/ 5 1024.4F  
FERNANDINA 65 67 240/ 2/ 3 1023.6F  
30.7N 81.3W 65 65 N/A 2/10 2/10  
MAYPORT 63 67 290/ 5/ 6 1023.9F  
31.4N 80.9W 66 66 250/ 6/ 8 1022.2F 3/ 9 3/ 9  
ST AUGUSTINE 63 68 270/ 5/ 7 1023.4F  
 

 
FLZ040-043>046-052-053-057-058-063-144-081100-  
INTERIOR CENTRAL FLORIDA  
 
CITY SKY/WX TMP DP RH WIND PRES REMARKS
 
OCALA CLEAR 57 56 96 CALM 30.24F FOG  
LEESBURG PTCLDY 62 61 96 CALM 30.23S FOG  
SANFORD PTCLDY 63 63 100 W5 30.21F  
ORLANDO EXEC CLOUDY 67 64 90 NW3 30.21F  
ORLANDO INTL PTCLDY 66 64 93 W3 30.21F  
KISSIMMEE CLEAR 63 62 97 NW3 30.22F  
WINTER HAVEN CLEAR 65 63 93 N3 30.23S  
LAKELAND INTL CLEAR 62 62 100 CALM 30.22S FOG  
BARTOW FAIR 63 61 94 CALM 30.22S FOG  
SEBRING FOG N/A N/A N/A N3 30.22S VSB 1/4  
OKEECHOBEE FOG 66 66 100 CALM 30.20S VSB 1/4  
 

 
FLZ041-047-054-059-064-141-147-081100-  
EAST CENTRAL FLORIDA  
 
CITY SKY/WX TMP DP RH WIND PRES REMARKS
 
DAYTONA BEACH PTCLDY 63 62 97 CALM 30.21F  
DELAND PTCLDY 61 60 96 NW6 30.22F  
JFK SPACE CTR MOCLDY 68 67 94 NW3 30.18S  
CAPE CANAVERAL FOG 67 66 95 W3 30.17S VSB 3/4  
PATRICK AFB CLEAR 70 69 97 NW6 30.17F  
MELBOURNE CLEAR 66 66 100 W5 30.19F  
VERO BEACH CLOUDY 70 69 97 W3 30.20F  
FT PIERCE FOG 67 66 97 W5 30.19F VSB 1/4  
STUART DRIZZLE 70 68 92 NW5 30.20F  
 
STATION/POSITION SKY/WX TEMP WIND PRES WAVE SWELL
 
AIR SEA DIR/SP/G HT/PER HT/PER  
(F) (DEG/KT/KT) (MB) (FT/S) (FT/S)  
28.5N 80.2W 80 10/ 4/ 6 1021.1F 4/11 3/11  
28.9N 78.5W 74 10/ 4/ 8 1022.5F 6/10 5/10  
TRIDENT PIER 69 77 CALM / 1 1021.4F  
 

 
FLZ050-056-061-142-242-148-248-149-249-151-251-155-255-  
160-260-081100-  
WEST CENTRAL FLORIDA  
 
CITY SKY/WX TMP DP RH WIND PRES REMARKS
 
INVERNESS CLOUDY 55 55 100 CALM 30.23F FOG  
BROOKSVILLE PTCLDY 56 56 100 CALM 30.23S FOG  
CLEARWATER AIR FAIR 63 61 94 CALM 30.22S  
ST PETE CLEARW CLEAR 67 67 100 CALM 30.21F  
TAMPA INTL CLEAR 67 64 90 CALM 30.22F  
TAMPA EXEC N/A N/A N/A N/A CALM 30.23S FOG  
MACDILL AFB CLEAR 62 62 98 NE3 30.17F  
ST PETERSBURG CLEAR 69 69 100 NE5 30.20S  
SARASOTA CLEAR 65 64 97 NE3 30.19F  
VENICE FAIR 66 66 100 NE6 30.21S  
 
STATION/POSITION SKY/WX TEMP WIND PRES WAVE SWELL
 
AIR SEA DIR/SP/G HT/PER HT/PER  
(F) (DEG/KT/KT) (MB) (FT/S) (FT/S)  
27.3N 84.3W 76 N/A 2/ 3  
CLEARWATER BEACH 68 73 70/ 3/ 4 1023.4F  
MIDDLE TAMPA BAY 69 90/ 6/ 7 N/A  
VENICE 66 73 50/ 5/ 6 1022.4F  
 

 
FLZ066-069-070-075>078-162-262-165-265-081100-  
SOUTHWEST FLORIDA AND KEYS  
 
CITY SKY/WX TMP DP RH WIND PRES REMARKS
 
PUNTA GORDA PTCLDY 65 65 100 NE6 30.21F  
FT MYERS MOCLDY 70 66 87 NE8 30.19S  
SOUTHWEST INTL MOCLDY 68 66 93 NE5 30.19F  
NAPLES CLEAR 69 67 93 NE5 30.18S  
MARCO ISLAND CLEAR 67 65 93 N6 30.20S  
IMMOKALEE FOG 64 64 100 CALM 30.19S VSB<1/4  
MARATHON CLEAR 74 68 81 N8 30.15S  
KEY WEST NAS CLEAR 79 68 69 NE6 30.16S  
KEY WEST INTL CLEAR 73 69 87 NE6 30.16S  
 
STATION/POSITION SKY/WX TEMP WIND PRES WAVE SWELL
 
AIR SEA DIR/SP/G HT/PER HT/PER  
(F) (DEG/KT/KT) (MB) (FT/S) (FT/S)  
NAPLES NOT AVBL  
DRY TORTUGAS NOT AVBL  
SOMBRERO KEY 76 50/ 14/ 17 1020.8F  
LONG KEY 1020.4R  
 

 
FLZ067-068-071>074-168-172>174-081100-  
SOUTHEAST FLORIDA  
 
CITY SKY/WX TMP DP RH WIND PRES REMARKS
 
W PALM BEACH PTCLDY 68 66 93 NW5 30.19S  
FT LAUDER-EXEC CLEAR 70 68 93 N5 30.17S  
FT LAUDERDALE PTCLDY 70 64 81 NW5 30.16F  
POMPANO BEACH CLEAR 72 62 71 N3 30.17F  
PEMBROKE PINES CLEAR 66 63 90 CALM 30.18F  
OPA LOCKA CLEAR 68 64 87 N5 30.17F  
MIAMI PTCLDY 70 64 81 N3 30.17S  
WEST KENDALL CLEAR 66 66 100 CALM 30.17S  
HOMESTEAD CLEAR 66 62 86 N3 30.14F  
 
STATION/POSITION SKY/WX TEMP WIND PRES WAVE SWELL
 
AIR SEA DIR/SP/G HT/PER HT/PER  
(F) (DEG/KT/KT) (MB) (FT/S) (FT/S)  
VIRGINIA KEY 76 40/ 8/ 10 1021.9  
LAKE WORTH 76 78 60/ 8/ 10 1021.4F  
SETTLEMENT POINT 74 40/ 10/ 11 1022.1S  
 

 
 
 
 
CLICK HERE TO GO TO PREVIOUS BULLETINS.

The Nexlab FL Page Main Text Page